Printer-friendly version

IAU Minor Planet Center

Minor Planet Center

(44) Nysa

Orbital Elements

The following orbital elements are taken from MPO 3854
   (44) Nysa
Epoch 2001 Apr. 1.0 TT = JDT 2452000.5                  Goffin
M 159.36159              (2000.0)            P               Q
n   0.26115834     Peri.  342.64805     -0.41136109     -0.91019292
a   2.4240046      Node   131.61306     +0.84373370     -0.40029316
e   0.1482936      Incl.    3.70246     +0.34481227     -0.10636838
P   3.77           H    7.03          G   0.46           U   0
From 1410 observations at 81 oppositions, 1857-2000, mean residual 0".52.
An explanation of the orbital elements is available.

These orbital elements are also available in forms suitable for loading into a number of popular planetarium-type software programs.


Ephemeris

The following ephemeris is at intervals of five days. A daily ephemeris covering the same time interval is also available.

Date    TT    R. A. (2000) Decl.     Delta      r     Elong.  Phase     V
 
2001 05 01    20 31.16   -16 59.6    2.505    2.777    94.8    21.2    11.9
2001 05 06    20 34.46   -16 48.4    2.438    2.778    98.8    21.0    11.9
2001 05 11    20 37.28   -16 38.9    2.373    2.779   103.0    20.7    11.8
2001 05 16    20 39.58   -16 31.3    2.308    2.780   107.2    20.3    11.7
2001 05 21    20 41.33   -16 25.9    2.245    2.781   111.6    19.8    11.7
2001 05 26    20 42.51   -16 22.8    2.183    2.782   116.1    19.1    11.6
2001 05 31    20 43.08   -16 22.3    2.124    2.782   120.8    18.2    11.5
2001 06 05    20 43.04   -16 24.5    2.067    2.783   125.6    17.2    11.4
2001 06 10    20 42.36   -16 29.4    2.014    2.783   130.5    16.1    11.3
2001 06 15    20 41.04   -16 37.1    1.965    2.783   135.7    14.8    11.3
2001 06 20    20 39.08   -16 47.6    1.920    2.783   140.9    13.3    11.2
2001 06 25    20 36.50   -17 00.7    1.880    2.783   146.3    11.7    11.1
2001 06 30    20 33.35   -17 16.3    1.845    2.783   151.9     9.9    11.0
2001 07 05    20 29.66   -17 33.9    1.816    2.783   157.6     8.0    10.9
2001 07 10    20 25.53   -17 53.3    1.793    2.782   163.4     6.0    10.8
2001 07 15    20 21.04   -18 13.8    1.777    2.782   169.2     3.9    10.7
2001 07 20    20 16.29   -18 35.1    1.767    2.781   175.1     1.8    10.6
2001 07 25    20 11.42   -18 56.6    1.764    2.780   178.4     0.6    10.6
2001 07 30    20 06.56   -19 17.8    1.769    2.779   172.7     2.7    10.7
2001 08 04    20 01.85   -19 38.2    1.780    2.778   166.8     4.8    10.8
2001 08 09    19 57.40   -19 57.4    1.798    2.776   161.0     6.8    10.8
2001 08 14    19 53.33   -20 15.1    1.823    2.775   155.2     8.8    10.9
2001 08 19    19 49.74   -20 31.1    1.853    2.773   149.5    10.7    11.0
2001 08 24    19 46.71   -20 45.2    1.889    2.771   143.9    12.4    11.1
2001 08 29    19 44.30   -20 57.4    1.931    2.769   138.5    14.0    11.2
2001 09 03    19 42.56   -21 07.6    1.977    2.767   133.3    15.4    11.3
2001 09 08    19 41.50   -21 15.9    2.027    2.765   128.1    16.7    11.4
2001 09 13    19 41.12   -21 22.2    2.081    2.763   123.2    17.7    11.4
2001 09 18    19 41.42   -21 26.6    2.137    2.760   118.4    18.7    11.5
2001 09 23    19 42.38   -21 29.1    2.197    2.758   113.7    19.5    11.6
2001 09 28    19 43.99   -21 29.7    2.258    2.755   109.1    20.1    11.7
2001 10 03    19 46.20   -21 28.5    2.322    2.752   104.7    20.6    11.7
2001 10 08    19 48.97   -21 25.5    2.386    2.749   100.5    20.9    11.8
2001 10 13    19 52.28   -21 20.6    2.451    2.746    96.3    21.2    11.9
2001 10 18    19 56.09   -21 14.0    2.517    2.742    92.2    21.3    11.9

Back to Bright Minor Planets

Astronomical Headlines Index


Valid HTML 4.01!